When you browse on this site, cookies collect data to enhance your experience and personalize the content and advertising you see.
Visit our Privacy Policy to learn more. By continuing to use the site, you agree to this use of cookies and data.
  • In United Kingdom
  • List of Countries
  • For 7 days
  • Water Temperature
  • Weather Map
  • Weather Widgets
  • user-avatar
    Login

    Hourly Weather Brčko

    Today, 27 February, Thursday

    Time Temperature Precipitation Wind Pressure Humidity
    00:00 +3°C° 0.4 mm 4 mps 743 mmHg 85%
    01:00 +3°C° 0 mm 4 mps 744 mmHg 84%
    02:00 +3°C° 0.3 mm 4 mps 744 mmHg 85%
    03:00 +3°C° 0.3 mm 3 mps 744 mmHg 86%
    04:00 +3°C° 0.3 mm 3 mps 744 mmHg 87%
    05:00 +3°C° 0.1 mm 3 mps 745 mmHg 85%
    06:00 +3°C° 0.1 mm 4 mps 746 mmHg 83%
    07:00 +3°C° 0 mm 4 mps 747 mmHg 80%
    08:00 +3°C° 0 mm 4 mps 747 mmHg 75%
    09:00 +3°C° 0 mm 5 mps 748 mmHg 70%
    10:00 +5°C° 0 mm 5 mps 748 mmHg 65%
    11:00 +5°C° 0 mm 5 mps 749 mmHg 62%
    12:00 +6°C° 0 mm 5 mps 749 mmHg 60%
    13:00 +6°C° 0 mm 5 mps 749 mmHg 57%
    14:00 +7°C° 0 mm 4 mps 749 mmHg 55%
    15:00 +7°C° 0 mm 4 mps 749 mmHg 54%
    16:00 +8°C° 0 mm 3 mps 749 mmHg 53%
    17:00 +7°C° 0 mm 3 mps 749 mmHg 58%
    18:00 +5°C° 0 mm 3 mps 749 mmHg 64%
    19:00 +3°C° 0 mm 3 mps 749 mmHg 70%
    20:00 +3°C° 0 mm 3 mps 748 mmHg 68%
    21:00 +3°C° 0 mm 4 mps 748 mmHg 67%
    22:00 +3°C° 0 mm 4 mps 747 mmHg 65%
    23:00 +3°C° 0 mm 4 mps 747 mmHg 64%

    Tomorrow, 28 February, Friday

    Time Temperature Precipitation Wind Pressure Humidity
    00:00 +4°C° 0 mm 4 mps 746 mmHg 63%
    01:00 +4°C° 0 mm 3 mps 746 mmHg 62%
    02:00 +4°C° 0 mm 3 mps 745 mmHg 64%
    03:00 +5°C° 0 mm 2 mps 745 mmHg 66%
    04:00 +4°C° 0 mm 2 mps 744 mmHg 68%
    05:00 +4°C° 0.5 mm 2 mps 744 mmHg 75%
    06:00 +5°C° 0.5 mm 1 mps 744 mmHg 81%
    07:00 +4°C° 0.5 mm 1 mps 744 mmHg 88%
    08:00 +4°C° 0.1 mm 3 mps 745 mmHg 77%
    09:00 +5°C° 0.1 mm 6 mps 746 mmHg 65%
    10:00 +6°C° 0.1 mm 8 mps 747 mmHg 54%
    11:00 +6°C° 0.2 mm 8 mps 748 mmHg 54%
    12:00 +6°C° 0.2 mm 9 mps 749 mmHg 54%
    13:00 +6°C° 0.2 mm 9 mps 750 mmHg 55%
    14:00 +6°C° 0.2 mm 9 mps 750 mmHg 54%
    15:00 +6°C° 0.2 mm 9 mps 751 mmHg 54%
    16:00 +6°C° 0.2 mm 8 mps 752 mmHg 54%
    17:00 +5°C° 0 mm 7 mps 753 mmHg 57%
    18:00 +4°C° 0 mm 6 mps 754 mmHg 60%
    19:00 +4°C° 0 mm 4 mps 755 mmHg 63%
    20:00 +3°C° 0 mm 4 mps 756 mmHg 67%
    21:00 +3°C° 0 mm 4 mps 756 mmHg 71%
    22:00 +2°C° 0 mm 3 mps 757 mmHg 75%
    23:00 +2°C° 0 mm 3 mps 757 mmHg 76%

    Day after tomorrow, 29 February, Saturday

    Time Temperature Precipitation Wind Pressure Humidity
    00:00 +1°C° 0 mm 3 mps 758 mmHg 77%
    01:00 +2°C° 0 mm 2 mps 758 mmHg 78%
    02:00 +2°C° 0 mm 2 mps 758 mmHg 78%
    03:00 +2°C° 0 mm 2 mps 758 mmHg 78%
    04:00 +1°C° 0 mm 2 mps 757 mmHg 78%
    05:00 +1°C° 0 mm 2 mps 757 mmHg 77%
    06:00 +1°C° 0 mm 2 mps 757 mmHg 77%
    07:00 +2°C° 0 mm 1 mps 757 mmHg 76%
    08:00 +3°C° 0 mm 2 mps 757 mmHg 68%
    09:00 +5°C° 0 mm 2 mps 756 mmHg 60%
    10:00 +7°C° 0 mm 2 mps 756 mmHg 52%
    11:00 +8°C° 0 mm 3 mps 755 mmHg 48%
    12:00 +9°C° 0 mm 3 mps 755 mmHg 43%
    13:00 +11°C° 0 mm 3 mps 754 mmHg 39%
    14:00 +10°C° 0 mm 3 mps 754 mmHg 43%
    15:00 +10°C° 0 mm 3 mps 753 mmHg 48%
    16:00 +10°C° 0 mm 3 mps 752 mmHg 52%
    17:00 +9°C° 0 mm 3 mps 752 mmHg 59%
    18:00 +8°C° 0 mm 3 mps 752 mmHg 65%
    19:00 +6°C° 0 mm 2 mps 752 mmHg 72%
    20:00 +6°C° 0 mm 2 mps 752 mmHg 72%
    21:00 +6°C° 0 mm 2 mps 752 mmHg 72%
    22:00 +6°C° 0 mm 2 mps 751 mmHg 71%
    23:00 +5°C° 0 mm 2 mps 751 mmHg 70%

    1 March, Sunday

    Time Temperature Precipitation Wind Pressure Humidity
    00:00 +5°C° 0 mm 2 mps 751 mmHg 68%
    01:00 +5°C° 0 mm 2 mps 751 mmHg 66%
    02:00 +5°C° 0 mm 2 mps 751 mmHg 65%
    03:00 +4°C° 0 mm 2 mps 751 mmHg 63%
    04:00 +4°C° 0 mm 2 mps 751 mmHg 61%
    05:00 +4°C° 0 mm 2 mps 751 mmHg 61%
    06:00 +5°C° 0 mm 2 mps 751 mmHg 61%
    07:00 +5°C° 0 mm 2 mps 751 mmHg 61%
    08:00 +6°C° 0 mm 2 mps 751 mmHg 58%
    09:00 +8°C° 0 mm 2 mps 751 mmHg 55%
    10:00 +10°C° 0 mm 2 mps 751 mmHg 51%
    11:00 +12°C° 0 mm 2 mps 751 mmHg 50%
    12:00 +13°C° 0 mm 3 mps 750 mmHg 49%
    13:00 +14°C° 0 mm 3 mps 750 mmHg 49%
    14:00 +16°C° 0 mm 3 mps 750 mmHg 51%
    15:00 +16°C° 0 mm 2 mps 749 mmHg 54%
    16:00 +16°C° 0 mm 2 mps 748 mmHg 57%
    17:00 +14°C° 0 mm 2 mps 748 mmHg 62%
    18:00 +12°C° 0 mm 3 mps 748 mmHg 66%
    19:00 +11°C° 0 mm 3 mps 748 mmHg 71%
    20:00 +11°C° 0 mm 3 mps 748 mmHg 72%
    21:00 +11°C° 0 mm 3 mps 747 mmHg 73%
    22:00 +10°C° 0 mm 3 mps 747 mmHg 74%
    23:00 +10°C° 0 mm 3 mps 746 mmHg 75%

    2 March, Monday

    Time Temperature Precipitation Wind Pressure Humidity
    00:00 +10°C° 0 mm 3 mps 746 mmHg 76%
    01:00 +10°C° 0 mm 4 mps 745 mmHg 77%
    02:00 +10°C° 0 mm 3 mps 744 mmHg 77%
    03:00 +10°C° 0 mm 3 mps 744 mmHg 77%
    04:00 +10°C° 0 mm 3 mps 743 mmHg 77%
    05:00 +10°C° 0 mm 3 mps 743 mmHg 77%
    06:00 +10°C° 0 mm 3 mps 742 mmHg 77%
    07:00 +11°C° 0 mm 3 mps 742 mmHg 76%
    08:00 +11°C° 0.3 mm 3 mps 742 mmHg 76%
    09:00 +12°C° 0.3 mm 3 mps 743 mmHg 76%
    10:00 +12°C° 0.3 mm 3 mps 743 mmHg 75%
    11:00 +13°C° 0.4 mm 4 mps 743 mmHg 67%
    12:00 +14°C° 0.4 mm 6 mps 744 mmHg 59%
    13:00 +14°C° 0.4 mm 7 mps 744 mmHg 50%
    14:00 +14°C° 0.1 mm 6 mps 744 mmHg 51%
    15:00 +14°C° 0.1 mm 5 mps 744 mmHg 52%
    16:00 +14°C° 0.1 mm 4 mps 744 mmHg 53%
    17:00 +13°C° 0 mm 3 mps 745 mmHg 59%
    18:00 +11°C° 0 mm 3 mps 745 mmHg 64%
    19:00 +10°C° 0 mm 2 mps 746 mmHg 70%
    20:00 +11°C° 0 mm 1 mps 746 mmHg 68%
    21:00 +10°C° 0 mm 1 mps 746 mmHg 67%
    22:00 +10°C° 0 mm 1 mps 746 mmHg 65%
    23:00 +9°C° 0 mm 2 mps 745 mmHg 66%

    3 March, Tuesday

    Time Temperature Precipitation Wind Pressure Humidity
    00:00 +9°C° 0 mm 3 mps 745 mmHg 66%
    01:00 +10°C° 0 mm 4 mps 744 mmHg 67%
    02:00 +10°C° 0 mm 4 mps 743 mmHg 68%
    03:00 +10°C° 0 mm 4 mps 742 mmHg 69%
    04:00 +10°C° 0 mm 4 mps 742 mmHg 69%
    05:00 +10°C° 0 mm 4 mps 741 mmHg 71%
    06:00 +9°C° 0 mm 5 mps 741 mmHg 72%
    07:00 +9°C° 0 mm 5 mps 740 mmHg 73%
    08:00 +10°C° 0.1 mm 5 mps 741 mmHg 72%
    09:00 +12°C° 0.1 mm 5 mps 741 mmHg 70%
    10:00 +13°C° 0.1 mm 5 mps 741 mmHg 68%
    11:00 +13°C° 0.2 mm 6 mps 742 mmHg 65%
    12:00 +12°C° 0.2 mm 7 mps 742 mmHg 63%
    13:00 +12°C° 0.2 mm 8 mps 743 mmHg 61%
    14:00 +11°C° 0 mm 7 mps 743 mmHg 62%
    15:00 +10°C° 0 mm 6 mps 743 mmHg 64%
    16:00 +9°C° 0 mm 6 mps 744 mmHg 66%
    17:00 +8°C° 0 mm 5 mps 744 mmHg 70%
    18:00 +6°C° 0 mm 4 mps 745 mmHg 75%
    19:00 +5°C° 0 mm 3 mps 746 mmHg 80%
    20:00 +6°C° 0 mm 2 mps 746 mmHg 81%
    21:00 +7°C° 0 mm 1 mps 746 mmHg 81%
    22:00 +6°C° 0 mm 1 mps 746 mmHg 82%
    23:00 +6°C° 0 mm 1 mps 746 mmHg 83%
    Show more